Regional Weather Roundup
Issued by NWS Mt. Holly, NJ

Home |  Current Version |  Previous Version |  Text Only |  Print | Product List |  Glossary On
Versions: 1 2 3 4 5 6 7 8 9 10 11 12 13 14 15 16 17 18 19 20 21 22 23 24 25 26 27 28
623
ASUS41 KPHI 210611
RWRPHI

REGIONAL WEATHER ROUNDUP
NATIONAL WEATHER SERVICE MOUNT HOLLY NJ
200 AM EDT SUN JUL 21 2024

NOTE:  "FAIR" INDICATES FEW OR NO CLOUDS BELOW 12,000 FEET WITH NO
SIGNIFICANT WEATHER AND/OR OBSTRUCTIONS TO VISIBILITY.

 * = STATION DOES NOT REPORT PRECIPITATION (E.G. RAIN, SNOW, ETC.)
        OR FOG.

NJZ015>026-210700-
SOUTHERN NEW JERSEY

CITY           SKY/WX    TMP DP  RH WIND       PRES   REMARKS
POMONA         PTCLDY    71  69  93 CALM      30.02F
6HR MIN TEMP:  71; 6HR MAX TEMP:  75; 6HR PCP: TRACE;

WILDWOOD*      MOCLDY    72  70  93 NE7       30.01S
MILLVILLE      PTCLDY    69  67  93 CALM      30.02R
WRIGHTSTOWN    PTCLDY    68  65  91 CALM      30.01F
LAKEHURST      PTCLDY    68  65  90 CALM      30.02S
MOUNT HOLLY    PTCLDY    68  66  93 CALM      30.03S
TRENTON        CLOUDY    72  66  81 CALM      30.03S
6HR MIN TEMP:  71; 6HR MAX TEMP:  77;


$$
NJZ001>014-210700-
NORTHERN NEW JERSEY

CITY           SKY/WX    TMP DP  RH WIND       PRES   REMARKS
SUSSEX         MOCLDY    69  68  96 CALM      30.03F FOG
ANDOVER*         N/A     66  65  96 CALM      30.04F
MORRISTOWN     MOCLDY    72  64  78 CALM      30.03S
NEWARK         MOCLDY    78  65  63 W9        30.02F
TETERBORO      MOCLDY    76  65  68 SW8       30.01F
CALDWELL       MOCLDY    75  62  64 CALM      30.03S
SOMERVILLE     MOCLDY    68  67  96 CALM      30.01S
ALLAIRE*       PTCLDY    71  67  87 CALM      30.04F
TOMS RIVER*    PTCLDY    68  67  96 CALM      30.04F

$$
PAZ043-044-047-054-055-060>062-066>071-210700-
EASTERN PENNSYLVANIA

CITY           SKY/WX    TMP DP  RH WIND       PRES   REMARKS
PHILADELPHIA   MOCLDY    74  69  85 CALM      30.03S
6HR MIN TEMP:  73; 6HR MAX TEMP:  78;

NORTH PHILA    PTCLDY    72  66  81 CALM      30.05R
BLUE BELL*     MOCLDY    67  67  99 CALM      30.05S
DOYLESTOWN     CLOUDY    70  66  87 CALM      30.04S
QUAKERTOWN*    CLOUDY    70  70 100 CALM      30.05S
PERKASIE*      CLOUDY    66  66 100 CALM      30.06S
POTTSTOWN      MOCLDY    69  66  90 CALM      30.06R
LANCASTER      CLEAR     70  65  84 CALM      30.04S
COATESVILLE    PTCLDY    70  70 100 CALM      30.05F
WEST CHESTER   MOCLDY    72  66  83 CALM      30.05S
READING        CLEAR     72  67  84 CALM      30.03S
6HR MIN TEMP:  71; 6HR MAX TEMP:  79;

ALLENTOWN      PTCLDY    69  64  84 CALM      30.04S
6HR MIN TEMP:  69; 6HR MAX TEMP:  78;

QN CITY/ALNTWN PTCLDY    70  64  83 CALM      30.05S
MOUNT POCONO   MOCLDY    65  62  90 W6        30.09S
6HR MIN TEMP:  65; 6HR MAX TEMP:  69;

HAZLETON         N/A     64  63  94 CALM      30.11S
LEHIGHTON      FOG       68  68 100 CALM      30.05S VSB 1/4
WILKES BARRE   MOCLDY    68  64  87 CALM      30.05S

$$
DEZALL-MDZ008-012-015-019-020-210700-
DELAWARE AND EASTERN MARYLAND

CITY           SKY/WX    TMP DP  RH WIND       PRES   REMARKS
WILMINGTON     MOCLDY    71  69  93 CALM      30.04R
6HR MIN TEMP:  70; 6HR MAX TEMP:  76; 6HR PCP: TRACE;

DOVER          CLOUDY    75  70  83 CALM      30.00R
CHESWOLD       MOCLDY    70  70 100 NW3       30.02R
GEORGETOWN     PTCLDY    74  72  93 N3        30.00S
6HR MIN TEMP:  73; 6HR MAX TEMP:  76; 6HR PCP: TRACE;

EASTON         CLOUDY    73  72  97 NW5       30.03R
STEVENSVILLE   CLOUDY    75  75 100 CALM      30.03S
PATUXENT       CLOUDY    76  70  82 NW8       30.03R
OCEAN CITY     CLOUDY    75  73  93 CALM      29.99S
WALLOPS ISLAND CLOUDY    74  74 100 NW8       29.99S
CAMBRIDGE      CLOUDY    73  72  94 NW5       30.02R
SALISBURY      CLOUDY    73  73 100 NW5       30.00F

$$
PAZ001-021-NYZ056-072-MDZ011-DCZ001-210700-
OTHER NEARBY LOCATIONS

CITY           SKY/WX    TMP DP  RH WIND       PRES   REMARKS
HARRISBURG     PTCLDY    73  66  78 S3        30.02F
STATE COLLEGE    N/A     65  65 100 CALM      30.07S
WILLIAMSPORT   CLEAR     68  66  93 NW3       30.03S
BINGHAMTON     CLEAR     66  54  65 E3        30.07S
NEW YORK CITY  MOCLDY    75  63  66 VRB5      30.05F
BALTIMORE      PTCLDY    71  69  93 CALM      30.03S
WASHINGTON DC  PTCLDY    74  67  78 S3        30.03S

$$